Find Starlink 31903

NORAD ID: 59845 Int'l Des: 2024-097 Owner: SPXS Country: US Constellation: starlink operational
LEOCIRCULAR

当前视图

正在加载3D地球...

About Starlink 31903

Starlink 31903 (NORAD 59845) is a starlink constellation satellite (v2 mini) launched May 23, 2024 by SPXS of US. It operates in LEO, CIRCULAR orbit with a mass of 730.00 kg.

关于 Starlink 31903

正在加载描述...

即将过境

Passes for default location (London). Set your location on the main map for personalized predictions.

高度历史

Loading altitude history...

两行轨道根数

1 59845U 24097L 26161.11995742 .00000402 00000-0 24145-4 0 9993
2 59845 43.0026 105.3634 0001351 263.9957 96.0740 15.27579027116134
Epoch: Jun 10, 2026 • Age: 9 hours

当前状态

高度 490.0 km
速度 7.62 km/s
星下点 -28.70°S, 12.89°W
发射日期 May 23, 2024
运行时间 2 years
类型 internet

技术详情

分类 Payload
质量 730.00 kg
干质量 700.00 kg
总质量 730.00 kg
长度 0.30 m
直径 4.10 m
跨度 29.00 m
形状 Box + pan
制造商 SPXS
平台类型 Starlink V2M
阶段状态 In Orbit
所有者/国家 SPXS/US

Most Searched